owner,sensor,date,latitude,longitude,vertical_datum,wind_speed,wind_to_direction,wind_speed_of_gust,qcFlag 
TABS,ioos:station:wmo:42047:1,2017-12-01T00:00:00Z,27.8966,-93.5973,4.0,6.703290237,19.9755468,8.14,'11111222,11111222,11111222' 
TABS,ioos:station:wmo:42047:1,2017-12-01T00:30:00Z,27.8966,-93.5973,4.0,6.518051856,16.48850469,7.67,'11111222,11111222,11111222' 
TABS,ioos:station:wmo:42047:1,2017-12-01T01:00:00Z,27.8966,-93.5973,4.0,6.896317858,12.22217705,8.21,'11111222,11111222,11111222' 
TABS,ioos:station:wmo:42047:1,2017-12-01T01:30:00Z,27.8966,-93.5973,4.0,7.130792382,11.40424275,8.5,'11111222,11111222,11111222' 
TABS,ioos:station:wmo:42047:1,2017-12-01T02:00:00Z,27.8966,-93.5973,4.0,7.211608697,16.34893935,8.58,'11111222,11111222,11111222' 
TABS,ioos:station:wmo:42047:1,2017-12-01T02:30:00Z,27.8966,-93.5973,4.0,7.567701104,7.669461797,8.75,'11111222,11111222,11111222' 
TABS,ioos:station:wmo:42047:1,2017-12-01T03:00:00Z,27.8966,-93.5973,4.0,7.131374342,17.79951456,8.6,'11111222,11111222,11111222' 
TABS,ioos:station:wmo:42047:1,2017-12-01T03:30:00Z,27.8966,-93.5973,4.0,7.002313903,17.45139771,8.07,'11111222,11111222,11111222' 
TABS,ioos:station:wmo:42047:1,2017-12-01T04:00:00Z,27.8966,-93.5973,4.0,6.672218522,13.78607529,7.91,'11111222,11111222,11111222' 
TABS,ioos:station:wmo:42047:1,2017-12-01T04:30:00Z,27.8966,-93.5973,4.0,6.713605589,18.13782928,8.3,'11111222,11111222,11111222' 
TABS,ioos:station:wmo:42047:1,2017-12-01T05:00:00Z,27.8966,-93.5973,4.0,6.758609324,15.26974297,7.96,'11111222,11111222,11111222' 
TABS,ioos:station:wmo:42047:1,2017-12-01T05:30:00Z,27.8966,-93.5973,4.0,6.598825653,20.76919623,7.9,'11111222,11111222,11111222' 
TABS,ioos:station:wmo:42047:1,2017-12-01T06:00:00Z,27.8966,-93.5973,4.0,6.508187152,13.05376333,7.6,'11111222,11111222,11111222' 
TABS,ioos:station:wmo:42047:1,2017-12-01T06:30:00Z,27.8966,-93.5973,4.0,6.321471348,20.26936389,7.39,'11111222,11111222,11111222' 
TABS,ioos:station:wmo:42047:1,2017-12-01T07:00:00Z,27.8966,-93.5973,4.0,6.773750807,16.64228243,8.11,'11111222,11111222,11111222' 
TABS,ioos:station:wmo:42047:1,2017-12-01T07:30:00Z,27.8966,-93.5973,4.0,7.032389352,16.8628745,8.23,'11111222,11111222,11111222' 
TABS,ioos:station:wmo:42047:1,2017-12-01T08:00:00Z,27.8966,-93.5973,4.0,6.751007332,20.82398557,8.05,'11111222,11111222,11111222' 
TABS,ioos:station:wmo:42047:1,2017-12-01T08:30:00Z,27.8966,-93.5973,4.0,7.00746031,20.11557493,8.12,'11111222,11111222,11111222' 
TABS,ioos:station:wmo:42047:1,2017-12-01T09:00:00Z,27.8966,-93.5973,4.0,6.80736366,16.99728088,8.11,'11111222,11111222,11111222' 
TABS,ioos:station:wmo:42047:1,2017-12-01T09:30:00Z,27.8966,-93.5973,4.0,6.426647649,26.12619837,8.09,'11111222,11111222,11111222' 
TABS,ioos:station:wmo:42047:1,2017-12-01T10:00:00Z,27.8966,-93.5973,4.0,6.677200012,20.60600197,7.78,'11111222,11111222,11111222' 
TABS,ioos:station:wmo:42047:1,2017-12-01T10:30:00Z,27.8966,-93.5973,4.0,6.190702706,27.72378095,7.32,'11111222,11111222,11111222' 
TABS,ioos:station:wmo:42047:1,2017-12-01T11:00:00Z,27.8966,-93.5973,4.0,6.160105519,33.27702976,7.66,'11111222,11111222,11111222' 
TABS,ioos:station:wmo:42047:1,2017-12-01T11:30:00Z,27.8966,-93.5973,4.0,5.616591493,31.08593746,6.99,'11111222,11111222,11111222' 
TABS,ioos:station:wmo:42047:1,2017-12-01T12:00:00Z,27.8966,-93.5973,4.0,5.436506231,40.07514613,6.4,'11111222,11111222,11111222' 
TABS,ioos:station:wmo:42047:1,2017-12-01T12:30:00Z,27.8966,-93.5973,4.0,5.724727068,27.23618121,7.33,'11111222,11111222,11111222' 
TABS,ioos:station:wmo:42047:1,2017-12-01T13:00:00Z,27.8966,-93.5973,4.0,5.580439051,34.11692479,7.23,'11111222,11111222,11111222' 
TABS,ioos:station:wmo:42047:1,2017-12-01T13:30:00Z,27.8966,-93.5973,4.0,4.889683016,33.65727934,6.22,'11111222,11111222,11111222' 
TABS,ioos:station:wmo:42047:1,2017-12-01T14:00:00Z,27.8966,-93.5973,4.0,4.583448483,32.16410484,6.18,'11111222,11111222,11111222' 
TABS,ioos:station:wmo:42047:1,2017-12-01T14:30:00Z,27.8966,-93.5973,4.0,4.284390272,40.45593729,5.56,'11111222,11111222,11111222' 
TABS,ioos:station:wmo:42047:1,2017-12-01T15:00:00Z,27.8966,-93.5973,4.0,4.675307477,28.20917802,5.62,'11111222,11111222,11111222' 
TABS,ioos:station:wmo:42047:1,2017-12-01T15:30:00Z,27.8966,-93.5973,4.0,4.53203045,17.59511226,5.81,'11111222,11111222,11111222' 
TABS,ioos:station:wmo:42047:1,2017-12-01T16:00:00Z,27.8966,-93.5973,4.0,4.774484265,24.63238769,5.88,'11111222,11111222,11111222' 
TABS,ioos:station:wmo:42047:1,2017-12-01T16:30:00Z,27.8966,-93.5973,4.0,5.159089067,31.68724984,6.28,'11111222,11111222,11111222' 
TABS,ioos:station:wmo:42047:1,2017-12-01T17:00:00Z,27.8966,-93.5973,4.0,5.031600143,25.80088192,6.12,'11111222,11111222,11111222' 
TABS,ioos:station:wmo:42047:1,2017-12-01T17:30:00Z,27.8966,-93.5973,4.0,4.291969245,32.24565613,5.55,'11111222,11111222,11111222' 
TABS,ioos:station:wmo:42047:1,2017-12-01T18:00:00Z,27.8966,-93.5973,4.0,4.173080397,22.69353142,5.54,'11111222,11111222,11111222' 
TABS,ioos:station:wmo:42047:1,2017-12-01T18:30:00Z,27.8966,-93.5973,4.0,4.190763654,35.7757836,5.24,'11111222,11111222,11111222' 
TABS,ioos:station:wmo:42047:1,2017-12-01T19:00:00Z,27.8966,-93.5973,4.0,4.054935265,34.042483,4.94,'11111222,11111222,11111222' 
TABS,ioos:station:wmo:42047:1,2017-12-01T19:30:00Z,27.8966,-93.5973,4.0,3.668787266,19.42245335,4.86,'11111222,11111222,11111222' 
TABS,ioos:station:wmo:42047:1,2017-12-01T20:00:00Z,27.8966,-93.5973,4.0,4.171055022,18.30437938,5.38,'11111222,11111222,11111222' 
TABS,ioos:station:wmo:42047:1,2017-12-01T20:30:00Z,27.8966,-93.5973,4.0,4.354044097,13.14232444,5.56,'11111222,11111222,11111222' 
TABS,ioos:station:wmo:42047:1,2017-12-01T21:00:00Z,27.8966,-93.5973,4.0,4.240624954,18.56287322,5.31,'11111222,11111222,11111222' 
TABS,ioos:station:wmo:42047:1,2017-12-01T21:30:00Z,27.8966,-93.5973,4.0,4.218649073,15.25487257,5.4,'11111222,11111222,11111222' 
TABS,ioos:station:wmo:42047:1,2017-12-01T22:00:00Z,27.8966,-93.5973,4.0,4.577553932,11.84974136,5.75,'11111222,11111222,11111222' 
TABS,ioos:station:wmo:42047:1,2017-12-01T22:30:00Z,27.8966,-93.5973,4.0,4.333785874,31.12218696,5.62,'11111222,11111222,11111222' 
TABS,ioos:station:wmo:42047:1,2017-12-01T23:00:00Z,27.8966,-93.5973,4.0,4.433531324,28.12542423,5.5,'11111222,11111222,11111222' 
TABS,ioos:station:wmo:42047:1,2017-12-01T23:30:00Z,27.8966,-93.5973,4.0,4.151240778,39.13372689,5.28,'11111222,11111222,11111222' 
TABS,ioos:station:wmo:42047:1,2017-12-02T00:00:00Z,27.8966,-93.5973,4.0,4.579475953,40.92668339,5.72,'11111222,11111222,11111222' 
TABS,ioos:station:wmo:42047:1,2017-12-02T00:30:00Z,27.8966,-93.5973,4.0,5.066280687,28.79069729,6.34,'11111222,11111222,11111222' 
TABS,ioos:station:wmo:42047:1,2017-12-02T01:00:00Z,27.8966,-93.5973,4.0,4.774484265,36.05354725,5.61,'11111222,11111222,11111222' 
TABS,ioos:station:wmo:42047:1,2017-12-02T01:30:00Z,27.8966,-93.5973,4.0,4.654503196,46.5666516,5.82,'11111222,11111222,11111222' 
TABS,ioos:station:wmo:42047:1,2017-12-02T02:00:00Z,27.8966,-93.5973,4.0,4.523052067,49.12358223,5.69,'11111222,11111222,11111222' 
TABS,ioos:station:wmo:42047:1,2017-12-02T02:30:00Z,27.8966,-93.5973,4.0,4.320046296,67.11451131,5.63,'11111222,11111222,11111222' 
TABS,ioos:station:wmo:42047:1,2017-12-02T03:00:00Z,27.8966,-93.5973,4.0,4.131682466,69.89804211,5.4,'11111222,11111222,11111222' 
TABS,ioos:station:wmo:42047:1,2017-12-02T03:30:00Z,27.8966,-93.5973,4.0,4.119635906,73.50019515,5.17,'11111222,11111222,11111222' 
TABS,ioos:station:wmo:42047:1,2017-12-02T04:00:00Z,27.8966,-93.5973,4.0,3.713569711,75.17752056,5.07,'11111222,11111222,11111222' 
TABS,ioos:station:wmo:42047:1,2017-12-02T04:30:00Z,27.8966,-93.5973,4.0,3.24038578,68.26388891,4.35,'11111222,11111222,11111222' 
TABS,ioos:station:wmo:42047:1,2017-12-02T05:30:00Z,27.8966,-93.5973,4.0,2.830441662,88.98739384,3.65,'11111222,11111222,11111222' 
TABS,ioos:station:wmo:42047:1,2017-12-02T06:00:00Z,27.8966,-93.5973,4.0,2.455076374,98.19651304,3.39,'11111222,11111222,11111222' 
TABS,ioos:station:wmo:42047:1,2017-12-02T06:30:00Z,27.8966,-93.5973,4.0,2.827083303,108.5635046,3.75,'11111222,11111222,11111222' 
TABS,ioos:station:wmo:42047:1,2017-12-02T07:00:00Z,27.8966,-93.5973,4.0,2.146671843,103.1950611,3.48,'11111222,11111222,11111222' 
TABS,ioos:station:wmo:42047:1,2017-12-02T07:30:00Z,27.8966,-93.5973,4.0,2.0902153,97.975442,3.14,'11111222,11111222,11111222' 
TABS,ioos:station:wmo:42047:1,2017-12-02T08:00:00Z,27.8966,-93.5973,4.0,1.350037037,89.57517466,2.15,'11111222,11111222,11111222' 
TABS,ioos:station:wmo:42047:1,2017-12-02T08:30:00Z,27.8966,-93.5973,4.0,1.440694277,76.34919187,2.03,'11111222,11111222,11111222' 
TABS,ioos:station:wmo:42047:1,2017-12-02T09:00:00Z,27.8966,-93.5973,4.0,1.524631103,59.22924286,2.51,'11111222,11111222,11111222' 
TABS,ioos:station:wmo:42047:1,2017-12-02T09:30:00Z,27.8966,-93.5973,4.0,1.610279479,52.06227047,2.48,'11111222,11111222,11111222' 
TABS,ioos:station:wmo:42047:1,2017-12-02T10:00:00Z,27.8966,-93.5973,4.0,1.91637679,44.36544108,2.76,'11111222,11111222,11111222' 
TABS,ioos:station:wmo:42047:1,2017-12-02T10:30:00Z,27.8966,-93.5973,4.0,1.675977327,45.72490692,2.68,'11111222,11111222,11111222' 
TABS,ioos:station:wmo:42047:1,2017-12-02T11:00:00Z,27.8966,-93.5973,4.0,1.711870322,50.45122266,2.42,'11111222,11111222,11111222' 
TABS,ioos:station:wmo:42047:1,2017-12-02T11:30:00Z,27.8966,-93.5973,4.0,1.867243958,66.31754674,2.52,'11111222,11111222,11111222' 
TABS,ioos:station:wmo:42047:1,2017-12-02T12:00:00Z,27.8966,-93.5973,4.0,2.404163056,70.05724113,2.97,'11111222,11111222,11111222' 
TABS,ioos:station:wmo:42047:1,2017-12-02T12:30:00Z,27.8966,-93.5973,4.0,2.018142711,75.06819682,2.75,'11111222,11111222,11111222' 
TABS,ioos:station:wmo:42047:1,2017-12-02T13:00:00Z,27.8966,-93.5973,4.0,1.847728335,67.737562,2.7,'11111222,11111222,11111222' 
TABS,ioos:station:wmo:42047:1,2017-12-02T13:30:00Z,27.8966,-93.5973,4.0,1.907590103,84.88674126,2.45,'11111222,11111222,11111222' 
TABS,ioos:station:wmo:42047:1,2017-12-02T14:00:00Z,27.8966,-93.5973,4.0,1.440277751,64.50208721,2.25,'11111222,11111222,11111222' 
TABS,ioos:station:wmo:42047:1,2017-12-02T14:30:00Z,27.8966,-93.5973,4.0,2.802320467,30.68295867,3.54,'11111222,11111222,11111222' 
TABS,ioos:station:wmo:42047:1,2017-12-02T15:00:00Z,27.8966,-93.5973,4.0,3.390811112,17.15217117,3.93,'11111222,11111222,11111222' 
TABS,ioos:station:wmo:42047:1,2017-12-02T15:30:00Z,27.8966,-93.5973,4.0,3.229643943,41.73636062,4.04,'11111222,11111222,11111222' 
TABS,ioos:station:wmo:42047:1,2017-12-02T16:00:00Z,27.8966,-93.5973,4.0,3.283443315,42.77812237,4.15,'11111222,11111222,11111222' 
TABS,ioos:station:wmo:42047:1,2017-12-02T16:30:00Z,27.8966,-93.5973,4.0,3.1004032,35.94555778,3.66,'11111222,11111222,11111222' 
TABS,ioos:station:wmo:42047:1,2017-12-02T17:00:00Z,27.8966,-93.5973,4.0,3.595177325,38.33594724,4.35,'11111222,11111222,11111222' 
TABS,ioos:station:wmo:42047:1,2017-12-02T17:30:00Z,27.8966,-93.5973,4.0,2.97848955,37.90842764,3.7,'11111222,11111222,11111222' 
TABS,ioos:station:wmo:42047:1,2017-12-02T18:00:00Z,27.8966,-93.5973,4.0,3.226716597,38.07714189,4.26,'11111222,11111222,11111222' 
TABS,ioos:station:wmo:42047:1,2017-12-02T18:30:00Z,27.8966,-93.5973,4.0,3.713892836,34.24602921,4.69,'11111222,11111222,11111222' 
TABS,ioos:station:wmo:42047:1,2017-12-02T19:00:00Z,27.8966,-93.5973,4.0,3.585038354,44.8866753,4.24,'11111222,11111222,11111222' 
TABS,ioos:station:wmo:42047:1,2017-12-02T19:30:00Z,27.8966,-93.5973,4.0,4.422239252,37.4655993,5.28,'11111222,11111222,11111222' 
TABS,ioos:station:wmo:42047:1,2017-12-02T20:00:00Z,27.8966,-93.5973,4.0,4.541035124,46.42731765,5.22,'11111222,11111222,11111222' 
TABS,ioos:station:wmo:42047:1,2017-12-02T20:30:00Z,27.8966,-93.5973,4.0,5.043659386,49.5832034,6.02,'11111222,11111222,11111222' 
TABS,ioos:station:wmo:42047:1,2017-12-02T21:00:00Z,27.8966,-93.5973,4.0,4.883646179,42.51013721,5.68,'11111222,11111222,11111222' 
TABS,ioos:station:wmo:42047:1,2017-12-02T21:30:00Z,27.8966,-93.5973,4.0,5.052128264,37.27787657,6.16,'11111222,11111222,11111222' 
TABS,ioos:station:wmo:42047:1,2017-12-02T22:00:00Z,27.8966,-93.5973,4.0,4.341900506,39.29838919,5.26,'11111222,11111222,11111222' 
TABS,ioos:station:wmo:42047:1,2017-12-02T22:30:00Z,27.8966,-93.5973,4.0,4.539977974,45.71361179,5.53,'11111222,11111222,11111222' 
TABS,ioos:station:wmo:42047:1,2017-12-02T23:00:00Z,27.8966,-93.5973,4.0,5.018814601,47.66455414,5.92,'11111222,11111222,11111222' 
TABS,ioos:station:wmo:42047:1,2017-12-02T23:30:00Z,27.8966,-93.5973,4.0,5.421116121,59.27152899,6.43,'11111222,11111222,11111222' 
TABS,ioos:station:wmo:42047:1,2017-12-03T00:00:00Z,27.8966,-93.5973,4.0,5.698991139,49.91090765,6.55,'11111222,11111222,11111222' 
TABS,ioos:station:wmo:42047:1,2017-12-03T00:30:00Z,27.8966,-93.5973,4.0,5.556122749,64.86437771,6.48,'11111222,11111222,11111222' 
TABS,ioos:station:wmo:42047:1,2017-12-03T01:00:00Z,27.8966,-93.5973,4.0,5.607147225,74.37704896,6.74,'11111222,11111222,11111222' 
TABS,ioos:station:wmo:42047:1,2017-12-03T01:30:00Z,27.8966,-93.5973,4.0,5.753129583,72.60400757,7.05,'11111222,11111222,11111222' 
TABS,ioos:station:wmo:42047:1,2017-12-03T02:00:00Z,27.8966,-93.5973,4.0,6.077910825,80.24282196,6.91,'11111222,11111222,11111222' 
TABS,ioos:station:wmo:42047:1,2017-12-03T02:30:00Z,27.8966,-93.5973,4.0,5.822233249,83.09428893,6.95,'11111222,11111222,11111222' 
TABS,ioos:station:wmo:42047:1,2017-12-03T03:00:00Z,27.8966,-93.5973,4.0,5.228431887,82.19494762,6.35,'11111222,11111222,11111222' 
TABS,ioos:station:wmo:42047:1,2017-12-03T03:30:00Z,27.8966,-93.5973,4.0,4.942721922,81.62359319,5.83,'11111222,11111222,11111222' 
TABS,ioos:station:wmo:42047:1,2017-12-03T04:00:00Z,27.8966,-93.5973,4.0,4.920162599,90.46622891,5.77,'11111222,11111222,11111222' 
TABS,ioos:station:wmo:42047:1,2017-12-03T04:30:00Z,27.8966,-93.5973,4.0,5.245493304,92.62281625,6.36,'11111222,11111222,11111222' 
TABS,ioos:station:wmo:42047:1,2017-12-03T05:00:00Z,27.8966,-93.5973,4.0,5.192494584,96.41371006,6.2,'11111222,11111222,11111222' 
TABS,ioos:station:wmo:42047:1,2017-12-03T05:30:00Z,27.8966,-93.5973,4.0,5.112817227,104.4986832,6.27,'11111222,11111222,11111222' 
TABS,ioos:station:wmo:42047:1,2017-12-03T06:00:00Z,27.8966,-93.5973,4.0,4.646912954,105.8610979,5.56,'11111222,11111222,11111222' 
TABS,ioos:station:wmo:42047:1,2017-12-03T06:30:00Z,27.8966,-93.5973,4.0,4.364642024,102.5719148,5.36,'11111222,11111222,11111222' 
TABS,ioos:station:wmo:42047:1,2017-12-03T07:00:00Z,27.8966,-93.5973,4.0,4.105727707,111.8795211,5.14,'11111222,11111222,11111222' 
TABS,ioos:station:wmo:42047:1,2017-12-03T07:30:00Z,27.8966,-93.5973,4.0,4.095912597,109.5412828,4.75,'11111222,11111222,11111222' 
TABS,ioos:station:wmo:42047:1,2017-12-03T08:00:00Z,27.8966,-93.5973,4.0,3.250107691,103.5235499,3.75,'11111222,11111222,11111222' 
TABS,ioos:station:wmo:42047:1,2017-12-03T08:30:00Z,27.8966,-93.5973,4.0,3.75,106.2605876,4.67,'11111222,11111222,11111222' 
TABS,ioos:station:wmo:42047:1,2017-12-03T09:00:00Z,27.8966,-93.5973,4.0,4.021554426,110.3729926,4.78,'11111222,11111222,11111222' 
TABS,ioos:station:wmo:42047:1,2017-12-03T09:30:00Z,27.8966,-93.5973,4.0,4.472639042,117.4247802,5.41,'11111222,11111222,11111222' 
TABS,ioos:station:wmo:42047:1,2017-12-03T10:00:00Z,27.8966,-93.5973,4.0,4.168081093,126.5128265,4.92,'11111222,11111222,11111222' 
TABS,ioos:station:wmo:42047:1,2017-12-03T10:30:00Z,27.8966,-93.5973,4.0,4.328336863,142.4155644,5.02,'11111222,11111222,11111222' 
TABS,ioos:station:wmo:42047:1,2017-12-03T11:00:00Z,27.8966,-93.5973,4.0,4.34659637,144.0795268,5.08,'11111222,11111222,11111222' 
TABS,ioos:station:wmo:42047:1,2017-12-03T11:30:00Z,27.8966,-93.5973,4.0,4.316132528,152.5446872,5.01,'11111222,11111222,11111222' 
TABS,ioos:station:wmo:42047:1,2017-12-03T12:00:00Z,27.8966,-93.5973,4.0,4.287889924,146.6067037,5.11,'11111222,11111222,11111222' 
TABS,ioos:station:wmo:42047:1,2017-12-03T12:30:00Z,27.8966,-93.5973,4.0,3.936000508,148.6121219,4.59,'11111222,11111222,11111222' 
TABS,ioos:station:wmo:42047:1,2017-12-03T13:00:00Z,27.8966,-93.5973,4.0,3.687627964,149.8892358,4.34,'11111222,11111222,11111222' 
TABS,ioos:station:wmo:42047:1,2017-12-03T13:30:00Z,27.8966,-93.5973,4.0,4.266907545,150.6717842,5.08,'11111222,11111222,11111222' 
TABS,ioos:station:wmo:42047:1,2017-12-03T14:00:00Z,27.8966,-93.5973,4.0,4.396691938,152.5027195,5.61,'11111222,11111222,11111222' 
TABS,ioos:station:wmo:42047:1,2017-12-03T14:30:00Z,27.8966,-93.5973,4.0,4.230791888,153.9197396,5.25,'11111222,11111222,11111222' 
TABS,ioos:station:wmo:42047:1,2017-12-03T15:00:00Z,27.8966,-93.5973,4.0,4.520199111,138.5878235,5.37,'11111222,11111222,11111222' 
TABS,ioos:station:wmo:42047:1,2017-12-03T15:30:00Z,27.8966,-93.5973,4.0,3.856475074,151.840395,4.86,'11111222,11111222,11111222' 
TABS,ioos:station:wmo:42047:1,2017-12-03T16:00:00Z,27.8966,-93.5973,4.0,3.493780188,148.220885,4.18,'11111222,11111222,11111222' 
TABS,ioos:station:wmo:42047:1,2017-12-03T16:30:00Z,27.8966,-93.5973,4.0,3.847557667,150.2369282,4.73,'11111222,11111222,11111222' 
TABS,ioos:station:wmo:42047:1,2017-12-03T17:00:00Z,27.8966,-93.5973,4.0,4.493840229,138.9703041,5.38,'11111222,11111222,11111222' 
TABS,ioos:station:wmo:42047:1,2017-12-03T17:30:00Z,27.8966,-93.5973,4.0,3.982084881,142.7562992,4.8,'11111222,11111222,11111222' 
TABS,ioos:station:wmo:42047:1,2017-12-03T18:00:00Z,27.8966,-93.5973,4.0,3.875590278,133.9548907,4.58,'11111222,11111222,11111222' 
TABS,ioos:station:wmo:42047:1,2017-12-03T18:30:00Z,27.8966,-93.5973,4.0,4.221480783,134.7124003,4.98,'11111222,11111222,11111222' 
TABS,ioos:station:wmo:42047:1,2017-12-03T19:00:00Z,27.8966,-93.5973,4.0,4.604486942,133.6803731,5.27,'11111222,11111222,11111222' 
TABS,ioos:station:wmo:42047:1,2017-12-03T19:30:00Z,27.8966,-93.5973,4.0,4.380182645,142.6071657,5.32,'11111222,11111222,11111222' 
TABS,ioos:station:wmo:42047:1,2017-12-03T20:00:00Z,27.8966,-93.5973,4.0,4.527537962,141.636949,5.35,'11111222,11111222,11111222' 
TABS,ioos:station:wmo:42047:1,2017-12-03T20:30:00Z,27.8966,-93.5973,4.0,4.316688546,137.2534085,5.28,'11111222,11111222,11111222' 
TABS,ioos:station:wmo:42047:1,2017-12-03T21:00:00Z,27.8966,-93.5973,4.0,4.626229566,133.4237693,5.65,'11111222,11111222,11111222' 
TABS,ioos:station:wmo:42047:1,2017-12-03T21:30:00Z,27.8966,-93.5973,4.0,4.523549491,129.7085953,5.37,'11111222,11111222,11111222' 
TABS,ioos:station:wmo:42047:1,2017-12-03T22:00:00Z,27.8966,-93.5973,4.0,4.554843576,136.245677,5.29,'11111222,11111222,11111222' 
TABS,ioos:station:wmo:42047:1,2017-12-03T22:30:00Z,27.8966,-93.5973,4.0,5.223035516,125.7292979,6.14,'11111222,11111222,11111222' 
TABS,ioos:station:wmo:42047:1,2017-12-03T23:00:00Z,27.8966,-93.5973,4.0,5.545782181,131.7110807,6.32,'11111222,11111222,11111222' 
TABS,ioos:station:wmo:42047:1,2017-12-03T23:30:00Z,27.8966,-93.5973,4.0,6.035660693,129.7572815,6.98,'11111222,11111222,11111222' 
TABS,ioos:station:wmo:42047:1,2017-12-04T00:00:00Z,27.8966,-93.5973,4.0,5.933439138,129.323707,6.82,'11111222,11111222,11111222' 
TABS,ioos:station:wmo:42047:1,2017-12-04T00:30:00Z,27.8966,-93.5973,4.0,5.558246126,128.4991511,6.48,'11111222,11111222,11111222' 
TABS,ioos:station:wmo:42047:1,2017-12-04T01:00:00Z,27.8966,-93.5973,4.0,6.116616712,132.2173014,7.0,'11111222,11111222,11111222' 
TABS,ioos:station:wmo:42047:1,2017-12-04T01:30:00Z,27.8966,-93.5973,4.0,6.540925011,134.5667353,7.57,'11111222,11111222,11111222' 
TABS,ioos:station:wmo:42047:1,2017-12-04T02:00:00Z,27.8966,-93.5973,4.0,6.269577338,132.8026898,7.15,'11111222,11111222,11111222' 
TABS,ioos:station:wmo:42047:1,2017-12-04T02:30:00Z,27.8966,-93.5973,4.0,5.986200799,130.52895,7.01,'11111222,11111222,11111222' 
TABS,ioos:station:wmo:42047:1,2017-12-04T03:00:00Z,27.8966,-93.5973,4.0,6.006005328,126.9465502,6.91,'11111222,11111222,11111222' 
TABS,ioos:station:wmo:42047:1,2017-12-04T03:30:00Z,27.8966,-93.5973,4.0,6.525802633,131.3349191,7.7,'11111222,11111222,11111222' 
TABS,ioos:station:wmo:42047:1,2017-12-04T04:00:00Z,27.8966,-93.5973,4.0,6.194400697,135.3927455,7.45,'11111222,11111222,11111222' 
TABS,ioos:station:wmo:42047:1,2017-12-04T04:30:00Z,27.8966,-93.5973,4.0,6.564548728,139.8818278,7.56,'11111222,11111222,11111222' 
TABS,ioos:station:wmo:42047:1,2017-12-04T05:00:00Z,27.8966,-93.5973,4.0,7.105561202,139.3377881,8.24,'11111222,11111222,11111222' 
TABS,ioos:station:wmo:42047:1,2017-12-04T05:30:00Z,27.8966,-93.5973,4.0,7.765320341,133.9567946,8.83,'11111222,11111222,11111222' 
TABS,ioos:station:wmo:42047:1,2017-12-04T06:00:00Z,27.8966,-93.5973,4.0,7.328144376,143.4900558,8.34,'11111222,11111222,11111222' 
TABS,ioos:station:wmo:42047:1,2017-12-04T06:30:00Z,27.8966,-93.5973,4.0,6.867459501,145.8011462,8.25,'11111222,11111222,11111222' 
TABS,ioos:station:wmo:42047:1,2017-12-04T07:00:00Z,27.8966,-93.5973,4.0,7.336381942,146.9600499,8.53,'11111222,11111222,11111222' 
TABS,ioos:station:wmo:42047:1,2017-12-04T07:30:00Z,27.8966,-93.5973,4.0,7.784375376,149.2511158,9.02,'11111222,11111222,11111222' 
TABS,ioos:station:wmo:42047:1,2017-12-04T08:00:00Z,27.8966,-93.5973,4.0,7.624991803,153.4352214,8.7,'11111222,11111222,11111222' 
TABS,ioos:station:wmo:42047:1,2017-12-04T08:30:00Z,27.8966,-93.5973,4.0,7.363321261,150.9985789,8.8,'11111222,11111222,11111222' 
TABS,ioos:station:wmo:42047:1,2017-12-04T09:00:00Z,27.8966,-93.5973,4.0,7.59420832,148.5707183,8.72,'11111222,11111222,11111222' 
TABS,ioos:station:wmo:42047:1,2017-12-04T09:30:00Z,27.8966,-93.5973,4.0,7.831634568,151.3080753,8.87,'11111222,11111222,11111222' 
TABS,ioos:station:wmo:42047:1,2017-12-04T10:00:00Z,27.8966,-93.5973,4.0,8.045402414,157.25988,9.1,'11111222,11111222,11111222' 
TABS,ioos:station:wmo:42047:1,2017-12-04T10:30:00Z,27.8966,-93.5973,4.0,7.548012984,149.596316,8.73,'11111222,11111222,11111222' 
TABS,ioos:station:wmo:42047:1,2017-12-04T11:00:00Z,27.8966,-93.5973,4.0,7.424829964,145.9249748,8.52,'11111222,11111222,11111222' 
TABS,ioos:station:wmo:42047:1,2017-12-04T11:30:00Z,27.8966,-93.5973,4.0,7.617171391,148.1463931,9.04,'11111222,11111222,11111222' 
TABS,ioos:station:wmo:42047:1,2017-12-04T12:00:00Z,27.8966,-93.5973,4.0,8.584416113,146.8840846,10.15,'11111222,11111222,11111222' 
TABS,ioos:station:wmo:42047:1,2017-12-04T12:30:00Z,27.8966,-93.5973,4.0,9.167006054,151.0306646,10.39,'11111222,11111222,11111222' 
TABS,ioos:station:wmo:42047:1,2017-12-04T13:00:00Z,27.8966,-93.5973,4.0,8.434364232,150.2132696,10.26,'11111222,11111222,11111222' 
TABS,ioos:station:wmo:42047:1,2017-12-04T13:30:00Z,27.8966,-93.5973,4.0,9.145632838,150.8848251,10.68,'11111222,11111222,11111222' 
TABS,ioos:station:wmo:42047:1,2017-12-04T14:00:00Z,27.8966,-93.5973,4.0,8.957974101,152.9775525,10.22,'11111222,11111222,11111222' 
TABS,ioos:station:wmo:42047:1,2017-12-04T14:30:00Z,27.8966,-93.5973,4.0,8.994987493,152.3811688,10.51,'11111222,11111222,11111222' 
TABS,ioos:station:wmo:42047:1,2017-12-04T15:00:00Z,27.8966,-93.5973,4.0,9.0308416,152.356976,10.49,'11111222,11111222,11111222' 
TABS,ioos:station:wmo:42047:1,2017-12-04T15:30:00Z,27.8966,-93.5973,4.0,8.645420753,152.6646074,10.11,'11111222,11111222,11111222' 
TABS,ioos:station:wmo:42047:1,2017-12-04T16:00:00Z,27.8966,-93.5973,4.0,8.533258463,154.0057567,9.7,'11111222,11111222,11111222' 
TABS,ioos:station:wmo:42047:1,2017-12-04T16:30:00Z,27.8966,-93.5973,4.0,8.40764533,153.5876031,9.96,'11111222,11111222,11111222' 
TABS,ioos:station:wmo:42047:1,2017-12-04T17:00:00Z,27.8966,-93.5973,4.0,9.060739484,155.2737096,10.55,'11111222,11111222,11111222' 
TABS,ioos:station:wmo:42047:1,2017-12-04T17:30:00Z,27.8966,-93.5973,4.0,8.845903006,153.5510871,10.25,'11111222,11111222,11111222' 
TABS,ioos:station:wmo:42047:1,2017-12-04T18:00:00Z,27.8966,-93.5973,4.0,8.716197565,153.4940163,9.83,'11111222,11111222,11111222' 
TABS,ioos:station:wmo:42047:1,2017-12-04T18:30:00Z,27.8966,-93.5973,4.0,8.434648778,153.830148,9.77,'11111222,11111222,11111222' 
TABS,ioos:station:wmo:42047:1,2017-12-04T19:00:00Z,27.8966,-93.5973,4.0,8.81658097,152.2144944,10.01,'11111222,11111222,11111222' 